�������l�o���
Date,Time,MP-1(��Sv/h),MP-2(��Sv/h),MP-3(��Sv/h),MP-4(��Sv/h),MP-5(��Sv/h),MP-6(��Sv/h),MP-7(��Sv/h),MP-8(��Sv/h),����,����(m/s),���J
2020/10/07,00:00,0.680,0.976,0.615,1.196,0.859,0.387,0.680,0.637,���k��,4.9,��
2020/10/07,00:10,0.679,0.974,0.614,1.195,0.857,0.389,0.679,0.638,���k��,6.0,��
2020/10/07,00:20,0.679,0.974,0.612,1.198,0.858,0.388,0.678,0.637,���k��,5.8,��
2020/10/07,00:30,0.679,0.976,0.613,1.196,0.856,0.387,0.680,0.639,���k��,4.9,��
2020/10/07,00:40,0.680,0.976,0.611,1.196,0.858,0.387,0.678,0.638,���k��,4.4,��
2020/10/07,00:50,0.680,0.973,0.613,1.196,0.859,0.388,0.678,0.638,���k��,4.9,��
2020/10/07,01:00,0.679,0.975,0.614,1.195,0.859,0.388,0.678,0.638,�k��,4.9,��
2020/10/07,01:10,0.681,0.974,0.614,1.195,0.859,0.389,0.679,0.640,�k��,5.2,��
2020/10/07,01:20,0.681,0.976,0.614,1.199,0.857,0.389,0.678,0.638,���k��,4.7,��
2020/10/07,01:30,0.678,0.974,0.612,1.197,0.859,0.388,0.679,0.638,���k��,4.9,��
2020/10/07,01:40,0.678,0.974,0.613,1.195,0.859,0.387,0.679,0.638,�k��,5.2,��
2020/10/07,01:50,0.680,0.976,0.612,1.197,0.859,0.388,0.679,0.639,�k��,4.6,��
2020/10/07,02:00,0.680,0.974,0.614,1.198,0.859,0.387,0.679,0.638,�k��,4.8,��
2020/10/07,02:10,0.680,0.973,0.614,1.198,0.860,0.388,0.678,0.638,�k�k��,4.9,��
2020/10/07,02:20,0.679,0.975,0.614,1.195,0.859,0.388,0.680,0.636,�k��,5.0,��
2020/10/07,02:30,0.681,0.975,0.614,1.197,0.858,0.388,0.678,0.637,�k��,5.5,��
2020/10/07,02:40,0.680,0.973,0.614,1.198,0.859,0.388,0.679,0.639,�k��,5.0,��
2020/10/07,02:50,0.679,0.974,0.613,1.196,0.859,0.388,0.679,0.637,�k��,5.0,��
2020/10/07,03:00,0.681,0.974,0.613,1.198,0.858,0.388,0.678,0.638,�k��,3.6,��
2020/10/07,03:10,0.681,0.973,0.613,1.196,0.857,0.387,0.678,0.638,�k��,4.4,��
2020/10/07,03:20,0.680,0.974,0.611,1.196,0.856,0.387,0.679,0.637,���k��,3.9,��
2020/10/07,03:30,0.679,0.974,0.614,1.196,0.857,0.388,0.678,0.640,���k��,3.3,��
2020/10/07,03:40,0.679,0.973,0.614,1.194,0.859,0.389,0.678,0.637,���k��,3.7,��
2020/10/07,03:50,0.680,0.975,0.611,1.196,0.858,0.388,0.677,0.638,���k��,3.2,��
2020/10/07,04:00,0.679,0.975,0.613,1.196,0.856,0.388,0.678,0.638,�k��,4.0,��
2020/10/07,04:10,0.680,0.975,0.615,1.197,0.859,0.388,0.678,0.639,�k��,3.7,��
2020/10/07,04:20,0.679,0.973,0.612,1.200,0.859,0.388,0.678,0.638,�k��,4.0,��
2020/10/07,04:30,0.680,0.974,0.611,1.198,0.857,0.388,0.678,0.639,�k��,4.2,��
2020/10/07,04:40,0.678,0.972,0.614,1.198,0.857,0.388,0.678,0.637,�k��,3.8,��
2020/10/07,04:50,0.679,0.974,0.611,1.197,0.857,0.388,0.679,0.638,�k��,4.3,��
2020/10/07,05:00,0.680,0.976,0.613,1.195,0.858,0.386,0.678,0.636,�k��,4.4,��
2020/10/07,05:10,0.679,0.974,0.612,1.197,0.858,0.387,0.678,0.635,�k��,4.0,��
2020/10/07,05:20,0.680,0.974,0.614,1.195,0.857,0.388,0.679,0.637,�k��,4.2,��
2020/10/07,05:30,0.680,0.973,0.614,1.197,0.858,0.388,0.679,0.638,�k��,4.4,��
2020/10/07,05:40,0.680,0.974,0.612,1.196,0.855,0.386,0.678,0.637,�k��,4.4,��
2020/10/07,05:50,0.678,0.974,0.611,1.197,0.857,0.386,0.678,0.638,�k��,4.2,��
2020/10/07,06:00,0.678,0.973,0.614,1.194,0.858,0.387,0.677,0.637,�k��,4.0,��
2020/10/07,06:10,0.679,0.972,0.613,1.195,0.857,0.387,0.678,0.637,�k��,4.2,��
2020/10/07,06:20,0.678,0.976,0.612,1.197,0.857,0.386,0.679,0.637,�k��,4.6,��
2020/10/07,06:30,0.679,0.974,0.613,1.198,0.857,0.387,0.678,0.639,�k��,4.4,��
2020/10/07,06:40,0.679,0.975,0.613,1.194,0.858,0.386,0.679,0.639,�k��,3.4,��
2020/10/07,06:50,0.681,0.973,0.613,1.197,0.856,0.386,0.679,0.639,�k��,3.5,��
2020/10/07,07:00,0.680,0.975,0.612,1.197,0.857,0.388,0.678,0.639,�k��,3.8,��
2020/10/07,07:10,0.679,0.975,0.612,1.196,0.858,0.387,0.679,0.637,�k��,3.5,��
2020/10/07,07:20,0.679,0.976,0.613,1.195,0.859,0.387,0.678,0.641,�k��,5.0,��
2020/10/07,07:30,0.681,0.975,0.615,1.197,0.859,0.386,0.679,0.637,�k��,6.2,��
2020/10/07,07:40,0.682,0.976,0.613,1.198,0.859,0.387,0.679,0.639,�k��,6.6,��
2020/10/07,07:50,0.681,0.974,0.614,1.196,0.859,0.389,0.679,0.639,�k��,6.1,��
2020/10/07,08:00,0.682,0.973,0.613,1.198,0.857,0.386,0.677,0.639,�k��,5.2,��
2020/10/07,08:10,0.682,0.972,0.615,1.198,0.859,0.388,0.676,0.639,�k��,3.5,��
2020/10/07,08:20,0.683,0.969,0.615,1.198,0.858,0.387,0.676,0.638,�k�k��,2.9,��
2020/10/07,08:30,0.680,0.970,0.614,1.197,0.857,0.386,0.678,0.639,�k�k��,3.1,��
2020/10/07,08:40,0.681,0.971,0.613,1.198,0.857,0.386,0.678,0.638,�k,2.3,��
2020/10/07,08:50,0.682,0.970,0.613,1.197,0.857,0.386,0.679,0.638,�k,2.6,��
2020/10/07,09:00,0.680,0.970,0.613,1.198,0.858,0.386,0.678,0.638,�k,2.0,��
2020/10/07,09:10,0.680,0.972,0.613,1.197,0.858,0.385,0.676,0.637,�k,1.5,��
2020/10/07,09:20,0.680,0.965,0.614,1.198,0.859,0.387,0.679,0.636,�k�k��,2.6,��
2020/10/07,09:30,0.680,0.969,0.613,1.199,0.859,0.386,0.678,0.636,�k,2.0,��
2020/10/07,09:40,0.681,0.968,0.612,1.197,0.857,0.386,0.680,0.635,�k�k��,2.6,��
2020/10/07,09:50,0.682,0.970,0.609,1.197,0.858,0.386,0.678,0.636,�k�k��,4.0,��
2020/10/07,10:00,0.682,0.971,0.609,1.198,0.858,0.386,0.680,0.636,�k��,4.4,��
2020/10/07,10:10,0.682,0.970,-,1.198,0.860,0.387,0.680,0.636,�k��,4.8,��
2020/10/07,10:20,0.680,0.971,-,1.199,0.861,0.385,0.678,0.636,�k��,5.2,��
2020/10/07,10:30,0.680,0.972,-,1.197,0.859,0.386,0.679,0.636,�k��,4.7,��
2020/10/07,10:40,0.682,0.973,-,1.199,0.860,0.386,0.679,0.638,�k��,4.4,��
2020/10/07,10:50,0.682,0.971,-,1.200,0.860,0.386,0.678,0.636,�k��,4.3,��
2020/10/07,11:00,0.681,0.972,-,1.198,0.861,0.386,0.680,0.637,�k��,4.9,��
2020/10/07,11:10,0.681,0.974,-,1.200,0.859,0.386,0.679,0.638,�k��,5.2,��
2020/10/07,11:20,0.680,0.975,-,1.199,0.861,0.386,0.679,0.637,�k��,5.2,��
2020/10/07,11:30,0.680,0.974,-,1.200,0.861,0.387,0.679,0.639,�k��,4.9,��
2020/10/07,11:40,0.682,0.974,-,1.199,0.860,0.387,0.680,0.637,�k��,5.3,��
2020/10/07,11:50,0.679,0.974,-,1.198,0.862,0.387,0.680,0.637,�k��,5.3,��
2020/10/07,12:00,0.680,0.976,-,1.200,0.862,0.388,0.680,0.636,���k��,4.4,��
2020/10/07,12:10,0.681,0.977,-,1.200,0.862,0.387,0.679,0.639,���k��,3.7,��
2020/10/07,12:20,0.681,0.977,-,1.198,0.861,0.387,0.678,0.636,���k��,4.1,��
2020/10/07,12:30,0.681,0.976,-,1.200,0.862,0.387,0.678,0.636,���k��,3.6,��
2020/10/07,12:40,0.682,0.976,-,1.201,0.864,0.387,0.678,0.638,���k��,3.5,��
2020/10/07,12:50,0.681,0.977,-,1.200,0.861,0.388,0.679,0.635,��,3.5,��
2020/10/07,13:00,0.680,0.975,-,1.198,0.863,0.388,0.677,0.637,��,2.6,��
2020/10/07,13:10,0.681,0.974,-,1.198,0.862,0.386,0.678,0.637,���쓌,2.2,��
2020/10/07,13:20,0.681,0.976,-,1.199,0.862,0.387,0.679,0.637,��,2.0,��
2020/10/07,13:30,0.680,0.972,-,1.198,0.861,0.387,0.680,0.636,���쓌,3.0,��
2020/10/07,13:40,0.682,0.972,-,1.198,0.861,0.386,0.678,0.637,���쓌,3.2,��
2020/10/07,13:50,0.682,0.973,-,1.199,0.862,0.387,0.678,0.637,���쓌,2.5,��
2020/10/07,14:00,0.681,0.971,-,1.198,0.863,0.388,0.678,0.636,���쓌,3.2,��
2020/10/07,14:10,0.680,0.976,-,1.199,0.861,0.387,0.679,0.636,���쓌,3.3,��
2020/10/07,14:20,0.679,0.978,-,1.199,0.861,0.385,0.677,0.637,��,3.1,��
2020/10/07,14:30,0.680,0.974,-,1.199,0.860,0.386,0.678,0.635,�쓌,3.0,��
2020/10/07,14:40,0.680,0.977,-,1.199,0.862,0.387,0.679,0.636,�쓌,2.6,��
2020/10/07,14:50,0.680,0.975,0.612,1.200,0.860,0.386,0.677,0.637,�쓌,2.5,��
2020/10/07,15:00,0.681,0.976,0.611,1.200,0.861,0.388,0.679,0.638,�쓌,3.7,��
2020/10/07,15:10,0.682,0.978,0.611,1.200,0.864,0.387,0.677,0.637,�쓌,3.1,��
2020/10/07,15:20,0.681,0.979,0.612,1.199,0.861,0.389,0.678,0.636,���쓌,2.0,��
2020/10/07,15:30,0.681,0.979,0.611,1.199,0.864,0.387,0.677,0.637,�쓌,2.2,��
2020/10/07,15:40,0.681,0.980,0.613,1.201,0.863,0.387,0.677,0.638,���쓌,2.0,��
2020/10/07,15:50,0.683,0.981,0.613,1.199,0.861,0.386,0.678,0.637,���쓌,1.7,��
2020/10/07,16:00,0.682,0.981,0.614,1.199,0.862,0.387,0.677,0.639,���쓌,2.3,��
2020/10/07,16:10,0.682,0.985,0.615,1.201,0.861,0.387,0.678,0.638,���쓌,2.3,��
2020/10/07,16:20,0.682,0.981,0.614,1.199,0.862,0.388,0.677,0.637,��,2.0,��
2020/10/07,16:30,0.682,0.985,0.613,1.200,0.863,0.387,0.677,0.640,���쓌,1.7,��
2020/10/07,16:40,0.681,0.982,0.616,1.199,0.864,0.387,0.678,0.639,�쓌,2.0,��
2020/10/07,16:50,0.683,0.981,0.615,1.198,0.865,0.389,0.678,0.641,�쓌,2.5,��
2020/10/07,17:00,0.681,0.982,0.615,1.201,0.862,0.388,0.677,0.639,�쓌,1.7,��
2020/10/07,17:10,0.683,0.983,0.614,1.199,0.864,0.387,0.678,0.639,��쓌,1.7,��
2020/10/07,17:20,0.683,0.983,0.615,1.199,0.864,0.386,0.678,0.640,��쓌,2.5,��
2020/10/07,17:30,0.683,0.982,0.614,1.199,0.864,0.386,0.678,0.638,��쓌,3.3,��
2020/10/07,17:40,0.683,0.984,0.615,1.199,0.865,0.387,0.680,0.639,��,2.0,��
2020/10/07,17:50,0.683,0.981,0.614,1.201,0.865,0.387,0.678,0.638,��쓌,2.6,��
2020/10/07,18:00,0.682,0.982,0.615,1.200,0.865,0.387,0.679,0.638,��,2.0,�L
2020/10/07,18:10,0.683,0.980,0.615,1.198,0.865,0.389,0.678,0.639,��쓌,3.9,�L
2020/10/07,18:20,0.682,0.980,0.614,1.198,0.862,0.389,0.679,0.638,��쓌,2.9,�L
2020/10/07,18:30,0.680,0.977,0.613,1.195,0.862,0.388,0.676,0.637,��쓌,3.2,�L
2020/10/07,18:40,0.677,0.969,0.612,1.194,0.854,0.385,0.674,0.635,��,3.2,�L
2020/10/07,18:50,0.674,0.966,0.607,1.187,0.849,0.386,0.672,0.634,�쐼,3.0,�L
2020/10/07,19:00,0.673,0.962,0.609,1.188,0.847,0.384,0.671,0.634,�쐼,3.5,�L
2020/10/07,19:10,0.670,0.962,0.605,1.187,0.846,0.383,0.671,0.633,�쐼,3.1,�L
2020/10/07,19:20,0.672,0.960,0.605,1.185,0.847,0.384,0.672,0.633,��쓌,2.9,�L
2020/10/07,19:30,0.672,0.961,0.606,1.186,0.844,0.382,0.669,0.633,�쐼,2.6,�L
2020/10/07,19:40,0.671,0.961,0.607,1.185,0.846,0.384,0.671,0.632,�쐼,2.3,�L
2020/10/07,19:50,0.669,0.957,0.604,1.182,0.842,0.382,0.671,0.631,��쐼,2.3,�L
2020/10/07,20:00,0.667,0.955,0.603,1.179,0.839,0.383,0.669,0.632,�쐼,3.7,�L
2020/10/07,20:10,0.667,0.953,0.601,1.179,0.840,0.384,0.670,0.632,��쐼,3.4,�L
2020/10/07,20:20,0.666,0.953,0.602,1.179,0.842,0.383,0.668,0.631,��쐼,2.6,�L
2020/10/07,20:30,0.666,0.955,0.602,1.181,0.841,0.382,0.670,0.631,��,2.3,�L
2020/10/07,20:40,0.668,0.954,0.601,1.178,0.841,0.384,0.670,0.632,��쐼,2.8,�L
2020/10/07,20:50,0.667,0.953,0.603,1.177,0.839,0.383,0.670,0.630,��쐼,4.1,�L
2020/10/07,21:00,0.666,0.952,0.600,1.177,0.839,0.383,0.670,0.632,�쐼,3.7,�L
2020/10/07,21:10,0.667,0.952,0.600,1.176,0.839,0.382,0.669,0.631,�쐼,2.6,�L
2020/10/07,21:20,0.666,0.952,0.603,1.179,0.839,0.381,0.671,0.632,��쐼,2.8,�L
2020/10/07,21:30,0.664,0.950,0.600,1.175,0.840,0.383,0.669,0.632,��,2.8,�L
2020/10/07,21:40,0.666,0.950,0.599,1.175,0.839,0.381,0.669,0.632,��,3.3,�L
2020/10/07,21:50,0.665,0.949,0.599,1.176,0.839,0.381,0.669,0.633,�쐼,3.6,�L
2020/10/07,22:00,0.663,0.949,0.600,1.175,0.837,0.382,0.668,0.633,���쐼,4.1,�L
2020/10/07,22:10,0.665,0.947,0.600,1.173,0.836,0.382,0.668,0.631,��쐼,3.7,�L
2020/10/07,22:20,0.665,0.945,0.600,1.173,0.836,0.382,0.670,0.631,��쐼,3.3,�L
2020/10/07,22:30,0.664,0.946,0.600,1.172,0.836,0.380,0.668,0.632,�쐼,3.1,�L
2020/10/07,22:40,0.663,0.947,0.601,1.173,0.836,0.381,0.667,0.631,�쐼,2.9,�L
2020/10/07,22:50,0.664,0.947,0.601,1.172,0.835,0.382,0.667,0.631,���쐼,3.3,�L
2020/10/07,23:00,0.664,0.944,0.601,1.173,0.834,0.381,0.667,0.630,���쐼,3.2,�L
2020/10/07,23:10,0.663,0.945,0.599,1.171,0.834,0.382,0.668,0.630,��,1.2,�L
2020/10/07,23:20,0.663,0.946,0.601,1.173,0.835,0.380,0.667,0.631,���쐼,2.0,�L
2020/10/07,23:30,0.661,0.942,0.599,1.172,0.833,0.381,0.668,0.630,���쐼,1.4,�L
2020/10/07,23:40,0.663,0.945,0.599,1.171,0.833,0.383,0.665,0.629,�쐼,1.7,�L
2020/10/07,23:50,0.662,0.942,0.601,1.168,0.832,0.380,0.666,0.630,�쐼,1.5,�L
